Flag for Falkland Islands Weather past 2 weeks in Stanley, Falkland Islands

Now
45 °F

Partly cloudy.


Feels Like: 37 °F
Forecast: 41 / 51 °F
Wind: 18 mph from West

Location: Mount Pleasant Airport

Current Time: Oct 21, 2014 at 9:13:29 PM

Latest Report: Oct 21, 2014 at 8:50 PM


Visibility: N/A

Pressure: 29.42 "Hg

Humidity: 93%

Dew point: 43 °F

Location of StanleyLocation

Historic Weather in Stanley — Graph

°F

Stanley temperature yesterday

Maximum temperature yesterday: 45 °F (at 10:50 AM)
Minimum temperature yesterday: 34 °F (at 1:50 AM)
Average temperature yesterday: 41 °F

Past Weeks' High & Low Weather Summary

 TemperatureHumidityPressure
High57 °F (Oct 15, 3:50 PM)100% (Oct 10, 7:50 PM)30.07 "Hg (Oct 10, 7:50 PM)
Low28 °F (Oct 12, 5:50 AM)35% (Oct 15, 4:50 PM)28.91 "Hg (Oct 13, 4:50 AM)
Average41 °F76%29.55 "Hg
* Reported Oct 6 7:50 PM — Oct 21 7:50 PM, Stanley, Weather by CustomWeather, © 2014

Note: Actual official high and low records may vary slightly from our data, if they occured in-between our weather recording intervals... More about our weather records

Advertising

Stanley weather history for previous 24 hours

 ConditionsComfort  
Time TempWeatherWind HumidityBarometerVisibility
7:50 PM
Oct 21
45 °FPartly sunny.16 mph87%29.39 "HgN/A
6:50 PM46 °FPartly sunny.13 mph87%29.39 "HgN/A
5:50 PM50 °FPassing clouds.18 mph76%29.36 "HgN/A
4:50 PM52 °FPartly sunny.17 mph77%29.36 "HgN/A
3:50 PM55 °FPartly sunny.16 mph72%29.33 "HgN/A
2:50 PM55 °FScattered clouds.16 mph72%29.33 "HgN/A
1:50 PM57 °FPartly sunny.18 mph67%29.33 "HgN/A
12:50 PM52 °FPartly sunny.16 mph82%29.30 "HgN/A
11:50 AM50 °FLow clouds.13 mph88%29.30 "HgN/A
10:50 AM48 °FPartly sunny.17 mph87%29.33 "HgN/A
9:50 AM48 °FLow clouds.7 mph94%29.33 "HgN/A
8:50 AM46 °FSunny.5 mph93%29.30 "HgN/A
7:50 AM45 °FBroken clouds.5 mph93%29.33 "HgN/A
6:50 AM43 °FPartly sunny.9 mph100%29.30 "HgN/A
5:50 AM43 °FPassing clouds.8 mph100%29.33 "HgN/A
4:50 AM43 °FFog.9 mph100%29.33 "Hg2 mi
3:50 AM43 °FFog.17 mph93%29.36 "Hg2 mi
2:50 AM43 °FFog.17 mph93%29.39 "Hg2 mi
1:50 AM41 °FLight rain. Passing clouds.21 mph100%29.42 "Hg2 mi
12:50 AM41 °FDrizzle. Mostly cloudy.26 mph100%29.45 "Hg3 mi
11:50 PM
Oct 20
41 °FDrizzle. Mostly cloudy.22 mph100%29.47 "Hg4 mi
10:50 PM41 °FLight rain. Mostly cloudy.28 mph93%29.50 "HgN/A
9:50 PM41 °FDrizzle. Mostly cloudy.23 mph93%29.59 "Hg4 mi
Weather by CustomWeather, © 2014

See weather overviewHow to use our weather pages